Flag for Germany Weather past 2 weeks in Ettlingen, Baden-Württemberg, Germany

Now
21 °F

Light snow. Ice fog.


Feels Like: 6 °F
Forecast: 20 / 34 °F
Wind: 20 mph from Southwest

Location: Karlsruhe - Baden Wurttemberg

Current Time: Dec 29, 2014 at 10:48:27 AM

Latest Report: Dec 29, 2014 at 10:20 AM


Visibility: 2 mi

Pressure: 30.51 "Hg

Humidity: 86%

Dew point: 18 °F

Location of EttlingenLocation

Historic Weather in Ettlingen — Graph

°F

Ettlingen temperature yesterday

Maximum temperature yesterday: 30 °F (at 5:20 AM)
Minimum temperature yesterday: 18 °F (at 10:20 PM)
Average temperature yesterday: 25 °F

Past Weeks' High & Low Weather Summary

 TemperatureHumidityPressure
High54 °F (Dec 18, 5:50 PM)100% (Dec 14, 3:20 PM)30.57 "Hg (Dec 14, 3:20 PM)
Low12 °F (Dec 29, 5:20 AM)50% (Dec 15, 2:50 PM)29.39 "Hg (Dec 27, 4:50 PM)
Average41 °F80%30.15 "Hg
* Reported Dec 14 9:20 AM — Dec 29 9:50 AM, Ettlingen, Weather by CustomWeather, © 2014

Note: Actual official high and low records may vary slightly from our data, if they occured in-between our weather recording intervals... More about our weather records

Advertising

Ettlingen weather history for previous 24 hours

 ConditionsComfort  
Time TempWeatherWind HumidityBarometerVisibility
9:50 AM
Dec 29
21 °FLight snow. Ice fog.17 mph86%30.51 "Hg1 mi
9:20 AM21 °FLight snow. Partly sunny.18 mph86%30.51 "HgN/A
8:50 AM21 °FLight snow. Partly sunny.15 mph86%30.51 "Hg4 mi
8:20 AM21 °FLight snow. Partly sunny.14 mph86%30.51 "Hg3 mi
7:53 AM21 °FSnow. Passing clouds.14 mph80%30.51 "Hg2 mi
7:50 AM21 °FLight snow. Partly cloudy.13 mph80%30.51 "Hg4 mi
7:20 AM21 °FClear.10 mph80%30.51 "Hg10 mi
6:50 AM19 °FClear.9 mph86%30.51 "Hg10 mi
6:20 AM16 °FClear.9 mph93%30.51 "Hg10 mi
5:50 AM12 °FClear.7 mph92%30.54 "Hg10 mi
5:20 AM12 °FClear.7 mph100%30.54 "Hg10 mi
4:50 AM16 °FClear.5 mph93%30.57 "Hg10 mi
4:20 AM14 °FClear.6 mph92%30.57 "Hg10 mi
1:50 AM14 °FClear.5 mph100%30.54 "Hg10 mi
1:20 AM16 °FClear.No wind93%30.54 "Hg10 mi
12:50 AM18 °FClear.2 mph79%30.51 "Hg10 mi
12:20 AM21 °FClear.5 mph80%30.51 "Hg10 mi
11:50 PM
Dec 28
19 °FClear.6 mph79%30.51 "Hg10 mi
11:20 PM21 °FClear.5 mph74%30.51 "Hg10 mi
10:50 PM18 °FClear.7 mph79%30.51 "Hg10 mi
10:20 PM18 °FClear.7 mph79%30.48 "Hg10 mi
9:50 PM19 °FClear.6 mph79%30.48 "Hg10 mi
9:20 PM19 °FClear.8 mph79%30.45 "Hg10 mi
8:50 PM19 °FClear.9 mph73%30.45 "Hg10 mi
8:20 PM19 °FClear.10 mph73%30.42 "Hg10 mi
7:50 PM19 °FClear.8 mph73%30.42 "Hg10 mi
7:20 PM19 °FClear.9 mph73%30.39 "Hg10 mi
6:50 PM19 °FClear.8 mph73%30.36 "Hg10 mi
6:20 PM21 °FClear.5 mph74%30.36 "Hg10 mi
5:50 PM23 °FClear.6 mph68%30.33 "Hg10 mi
5:20 PM23 °FClear.6 mph68%30.30 "Hg10 mi
4:50 PM23 °FClear.6 mph74%30.27 "Hg10 mi
4:20 PM25 °FSunny.12 mph69%30.27 "Hg10 mi
3:50 PM27 °FPassing clouds.14 mph64%30.24 "HgN/A
3:20 PM27 °FSunny.15 mph69%30.21 "Hg10 mi
2:50 PM27 °FScattered clouds.15 mph69%30.18 "HgN/A
2:20 PM27 °FScattered clouds.15 mph69%30.15 "HgN/A
1:50 PM27 °FPartly sunny.14 mph74%30.12 "Hg6 mi
1:20 PM27 °FPartly sunny.18 mph80%30.09 "HgN/A
12:50 PM27 °FPartly sunny.20 mph80%30.09 "Hg5 mi
12:20 PM27 °FBroken clouds.17 mph86%30.07 "Hg4 mi
11:50 AM27 °FLight snow. Ice fog.21 mph86%30.07 "Hg2 mi
11:20 AM27 °FSnow. Ice fog.21 mph93%30.04 "Hg1 mi
10:50 AM27 °FSnow. Ice fog.21 mph93%30.01 "Hg1 mi
10:20 AM27 °FSnow. Ice fog.18 mph93%29.98 "Hg1 mi
Weather by CustomWeather, © 2014

See weather overviewHow to use our weather pages